Time,TemperatureF,DewpointF,PressureIn,WindDirection,WindDirectionDegrees,WindSpeedMPH,WindSpeedGustMPH,Humidity,HourlyPrecipIn,Conditions,Clouds,dailyrainin,SoftwareType,DateUTC
2013-07-22 00:02:00,74.7,72.5,29.92,West,277,0.0,0.0,93,0.00,CLR,,0.00,WeatherDisplay:10.37,2013-07-22 04:02:00,
2013-07-22 00:07:00,74.7,72.5,29.92,West,277,0.0,0.0,93,0.00,CLR,,0.00,WeatherDisplay:10.37,2013-07-22 04:07:00,
2013-07-22 00:12:00,74.6,72.4,29.92,West,276,0.0,0.0,93,0.00,CLR,,0.00,WeatherDisplay:10.37,2013-07-22 04:12:00,
2013-07-22 00:17:00,74.5,72.3,29.92,West,277,0.0,0.0,93,0.00,CLR,,0.00,WeatherDisplay:10.37,2013-07-22 04:17:00,
2013-07-22 00:22:00,74.5,72.3,29.92,West,277,0.0,0.0,93,0.00,CLR,,0.00,WeatherDisplay:10.37,2013-07-22 04:22:00,
2013-07-22 00:27:00,74.5,72.3,29.92,West,277,0.0,0.0,93,0.00,CLR,,0.00,WeatherDisplay:10.37,2013-07-22 04:27:00,
2013-07-22 00:32:00,74.4,72.2,29.92,West,277,0.0,0.0,93,0.00,CLR,,0.00,WeatherDisplay:10.37,2013-07-22 04:32:00,
2013-07-22 00:37:00,74.4,72.6,29.92,NW,309,0.0,0.0,94,0.00,CLR,,0.00,WeatherDisplay:10.37,2013-07-22 04:37:00,
2013-07-22 00:42:00,74.4,72.6,29.92,NW,309,0.0,0.0,94,0.00,CLR,,0.00,WeatherDisplay:10.37,2013-07-22 04:42:00,
2013-07-22 00:47:00,74.4,72.6,29.92,NW,309,0.0,0.0,94,0.00,CLR,,0.00,WeatherDisplay:10.37,2013-07-22 04:47:00,
2013-07-22 00:52:00,74.3,72.5,29.92,NW,309,0.0,0.0,94,0.00,CLR,,0.00,WeatherDisplay:10.37,2013-07-22 04:52:00,
2013-07-22 00:57:00,74.3,72.5,29.91,NW,309,0.0,0.0,94,0.00,CLR,,0.00,WeatherDisplay:10.37,2013-07-22 04:57:00,
2013-07-22 01:02:00,74.3,72.5,29.92,NW,309,0.0,0.0,94,0.00,CLR,,0.00,WeatherDisplay:10.37,2013-07-22 05:02:00,
2013-07-22 01:07:00,74.2,72.4,29.91,NW,309,0.0,0.0,94,0.00,CLR,,0.00,WeatherDisplay:10.37,2013-07-22 05:07:00,
2013-07-22 01:12:00,74.1,72.3,29.92,NW,309,0.0,0.0,94,0.00,CLR,,0.00,WeatherDisplay:10.37,2013-07-22 05:12:00,
2013-07-22 01:17:00,74.1,72.3,29.92,NW,309,0.0,0.0,94,0.00,CLR,,0.00,WeatherDisplay:10.37,2013-07-22 05:17:00,
2013-07-22 01:22:00,74.0,72.2,29.92,NW,309,0.0,0.0,94,0.00,CLR,,0.00,WeatherDisplay:10.37,2013-07-22 05:22:00,
2013-07-22 01:27:00,74.0,72.2,29.91,NW,309,0.0,0.0,94,0.00,CLR,,0.00,WeatherDisplay:10.37,2013-07-22 05:27:00,
2013-07-22 01:32:00,74.0,72.2,29.91,NW,309,0.0,0.0,94,0.00,CLR,,0.00,WeatherDisplay:10.37,2013-07-22 05:32:00,
2013-07-22 01:37:00,74.0,72.2,29.91,NW,309,0.0,0.0,94,0.00,CLR,,0.00,WeatherDisplay:10.37,2013-07-22 05:37:00,
2013-07-22 01:42:00,74.0,72.2,29.92,NW,309,0.0,0.0,94,0.00,CLR,,0.00,WeatherDisplay:10.37,2013-07-22 05:42:00,
2013-07-22 01:47:00,73.9,72.1,29.91,NW,309,0.0,0.0,94,0.00,CLR,,0.00,WeatherDisplay:10.37,2013-07-22 05:47:00,
2013-07-22 01:52:00,73.9,72.1,29.91,NW,309,0.0,0.0,94,0.00,CLR,,0.00,WeatherDisplay:10.37,2013-07-22 05:52:00,
2013-07-22 01:57:00,73.9,72.4,29.91,NW,309,0.0,0.0,95,0.00,CLR,,0.00,WeatherDisplay:10.37,2013-07-22 05:57:00,
2013-07-22 02:02:00,73.8,72.3,29.91,NW,309,0.0,0.0,95,0.00,CLR,,0.00,WeatherDisplay:10.37,2013-07-22 06:02:00,
2013-07-22 02:07:00,73.7,72.2,29.91,NW,309,0.0,0.0,95,0.00,CLR,,0.00,WeatherDisplay:10.37,2013-07-22 06:07:00,
2013-07-22 02:12:00,73.6,72.1,29.91,NW,309,0.0,0.0,95,0.00,CLR,,0.00,WeatherDisplay:10.37,2013-07-22 06:12:00,
2013-07-22 02:17:00,73.6,72.1,29.90,NW,309,0.0,0.0,95,0.00,CLR,,0.00,WeatherDisplay:10.37,2013-07-22 06:17:00,
2013-07-22 02:22:00,73.6,72.1,29.90,NW,309,0.0,0.0,95,0.00,CLR,,0.00,WeatherDisplay:10.37,2013-07-22 06:22:00,
2013-07-22 02:27:00,73.5,72.0,29.90,NW,309,0.0,0.0,95,0.00,CLR,,0.00,WeatherDisplay:10.37,2013-07-22 06:27:00,
2013-07-22 02:32:00,73.5,72.0,29.90,NW,309,0.0,0.0,95,0.00,CLR,,0.00,WeatherDisplay:10.37,2013-07-22 06:32:00,
2013-07-22 02:37:00,73.4,71.9,29.90,NW,309,0.0,0.0,95,0.00,CLR,,0.00,WeatherDisplay:10.37,2013-07-22 06:37:00,
2013-07-22 02:42:00,73.3,71.8,29.89,NW,309,0.0,0.0,95,0.00,CLR,,0.00,WeatherDisplay:10.37,2013-07-22 06:42:00,
2013-07-22 02:47:00,73.2,71.7,29.89,NW,309,0.0,0.0,95,0.00,CLR,,0.00,WeatherDisplay:10.37,2013-07-22 06:47:00,
2013-07-22 02:52:00,73.1,71.6,29.89,NW,309,0.0,0.0,95,0.00,CLR,,0.00,WeatherDisplay:10.37,2013-07-22 06:52:00,
2013-07-22 02:57:00,73.0,71.5,29.88,NW,309,0.0,0.0,95,0.00,CLR,,0.00,WeatherDisplay:10.37,2013-07-22 06:57:00,
2013-07-22 03:02:00,73.0,71.5,29.88,NW,309,0.0,0.0,95,0.00,CLR,,0.00,WeatherDisplay:10.37,2013-07-22 07:02:00,
2013-07-22 03:07:00,73.0,71.5,29.88,NW,309,0.0,0.0,95,0.00,CLR,,0.00,WeatherDisplay:10.37,2013-07-22 07:07:00,
2013-07-22 03:12:00,72.9,71.4,29.88,NW,309,0.0,0.0,95,0.00,CLR,,0.00,WeatherDisplay:10.37,2013-07-22 07:12:00,
2013-07-22 03:17:00,72.8,71.3,29.88,NW,309,0.0,0.0,95,0.00,CLR,,0.00,WeatherDisplay:10.37,2013-07-22 07:17:00,
2013-07-22 03:22:00,72.8,71.6,29.88,NW,309,0.0,0.0,96,0.00,CLR,,0.00,WeatherDisplay:10.37,2013-07-22 07:22:00,
2013-07-22 03:27:00,72.8,71.6,29.88,NW,309,0.0,0.0,96,0.00,CLR,,0.00,WeatherDisplay:10.37,2013-07-22 07:27:00,
2013-07-22 03:32:00,72.8,71.6,29.88,NW,309,0.0,0.0,96,0.00,CLR,,0.00,WeatherDisplay:10.37,2013-07-22 07:32:00,
2013-07-22 03:37:00,72.9,71.7,29.88,NW,309,0.0,0.0,96,0.00,CLR,,0.00,WeatherDisplay:10.37,2013-07-22 07:37:00,
2013-07-22 03:42:00,72.8,71.6,29.87,NW,309,0.0,0.0,96,0.00,CLR,,0.00,WeatherDisplay:10.37,2013-07-22 07:42:00,
2013-07-22 03:47:00,72.9,71.7,29.87,NW,321,0.0,0.0,96,0.00,CLR,,0.00,WeatherDisplay:10.37,2013-07-22 07:47:00,
2013-07-22 03:52:00,73.0,71.8,29.87,East,94,0.0,0.0,96,0.00,CLR,,0.00,WeatherDisplay:10.37,2013-07-22 07:52:00,
2013-07-22 03:57:00,73.0,71.8,29.87,East,94,0.0,0.0,96,0.00,CLR,,0.00,WeatherDisplay:10.37,2013-07-22 07:57:00,
2013-07-22 04:02:00,73.1,71.9,29.87,East,94,0.0,0.0,96,0.00,CLR,,0.00,WeatherDisplay:10.37,2013-07-22 08:02:00,
2013-07-22 04:07:00,73.1,72.2,29.87,East,89,0.0,0.0,97,0.00,CLR,,0.00,WeatherDisplay:10.37,2013-07-22 08:07:00,
2013-07-22 04:12:00,73.1,72.2,29.87,East,91,0.0,0.0,97,0.00,CLR,,0.00,WeatherDisplay:10.37,2013-07-22 08:12:00,
2013-07-22 04:17:00,73.0,72.1,29.87,East,91,0.0,0.0,97,0.00,CLR,,0.00,WeatherDisplay:10.37,2013-07-22 08:17:00,
2013-07-22 04:22:00,73.0,72.1,29.87,East,90,0.0,0.0,97,0.00,CLR,,0.00,WeatherDisplay:10.37,2013-07-22 08:22:00,
2013-07-22 04:27:00,72.9,72.0,29.87,East,91,0.0,0.0,97,0.00,CLR,,0.00,WeatherDisplay:10.37,2013-07-22 08:27:00,
2013-07-22 04:32:00,72.9,72.0,29.87,ESE,102,0.0,0.2,97,0.00,CLR,,0.00,WeatherDisplay:10.37,2013-07-22 08:32:00,
2013-07-22 04:37:00,72.9,72.0,29.87,East,95,0.0,0.0,97,0.00,CLR,,0.00,WeatherDisplay:10.37,2013-07-22 08:37:00,
2013-07-22 04:42:00,72.9,72.0,29.87,East,95,1.1,0.0,97,0.00,CLR,,0.00,WeatherDisplay:10.37,2013-07-22 08:42:00,
2013-07-22 04:47:00,73.0,72.1,29.87,East,80,1.1,0.0,97,0.00,CLR,,0.00,WeatherDisplay:10.37,2013-07-22 08:47:00,
2013-07-22 04:52:00,72.9,72.0,29.87,East,81,0.0,0.0,97,0.00,CLR,,0.00,WeatherDisplay:10.37,2013-07-22 08:52:00,
2013-07-22 04:57:00,72.9,72.0,29.88,East,87,0.0,0.0,97,0.00,CLR,,0.00,WeatherDisplay:10.37,2013-07-22 08:57:00,
2013-07-22 05:02:00,72.9,72.0,29.88,East,82,0.0,0.0,97,0.00,CLR,,0.00,WeatherDisplay:10.37,2013-07-22 09:02:00,
2013-07-22 05:07:00,72.9,72.0,29.88,East,84,1.1,0.0,97,0.00,CLR,,0.00,WeatherDisplay:10.37,2013-07-22 09:07:00,
2013-07-22 05:12:00,72.9,72.0,29.88,East,84,0.0,0.0,97,0.00,CLR,,0.00,WeatherDisplay:10.37,2013-07-22 09:12:00,
2013-07-22 05:17:00,72.9,72.0,29.88,East,84,0.0,0.0,97,0.00,CLR,,0.00,WeatherDisplay:10.37,2013-07-22 09:17:00,
2013-07-22 05:22:00,72.9,72.0,29.88,East,84,0.0,0.0,97,0.00,CLR,,0.00,WeatherDisplay:10.37,2013-07-22 09:22:00,
2013-07-22 05:27:00,72.9,72.0,29.88,East,82,0.0,0.0,97,0.00,CLR,,0.00,WeatherDisplay:10.37,2013-07-22 09:27:00,
2013-07-22 05:32:00,72.8,71.6,29.88,East,82,0.0,0.0,96,0.00,CLR,,0.00,WeatherDisplay:10.37,2013-07-22 09:32:00,
2013-07-22 05:37:00,72.7,71.5,29.88,East,82,0.0,0.0,96,0.00,CLR,,0.00,WeatherDisplay:10.37,2013-07-22 09:37:00,
2013-07-22 05:42:00,72.6,71.7,29.88,East,84,0.0,0.0,97,0.00,CLR,,0.00,WeatherDisplay:10.37,2013-07-22 09:42:00,
2013-07-22 05:47:00,72.5,71.6,29.89,East,84,0.0,0.0,97,0.00,CLR,,0.00,WeatherDisplay:10.37,2013-07-22 09:47:00,
2013-07-22 05:52:00,72.4,71.5,29.89,East,82,0.0,0.0,97,0.00,CLR,,0.00,WeatherDisplay:10.37,2013-07-22 09:52:00,
2013-07-22 05:57:00,72.4,71.5,29.89,East,84,0.0,0.0,97,0.00,CLR,,0.00,WeatherDisplay:10.37,2013-07-22 09:57:00,
2013-07-22 06:02:00,72.3,71.4,29.89,East,82,0.0,0.0,97,0.00,CLR,,0.00,WeatherDisplay:10.37,2013-07-22 10:02:00,
2013-07-22 06:07:00,72.2,71.3,29.89,East,84,0.0,0.0,97,0.00,CLR,,0.00,WeatherDisplay:10.37,2013-07-22 10:07:00,
2013-07-22 06:12:00,72.2,71.3,29.89,East,84,0.0,0.0,97,0.00,CLR,,0.00,WeatherDisplay:10.37,2013-07-22 10:12:00,
2013-07-22 06:17:00,72.1,71.2,29.89,East,84,0.0,0.0,97,0.00,CLR,,0.00,WeatherDisplay:10.37,2013-07-22 10:17:00,
2013-07-22 06:22:00,72.1,71.2,29.89,East,82,0.0,0.0,97,0.00,CLR,,0.00,WeatherDisplay:10.37,2013-07-22 10:22:00,
2013-07-22 06:27:00,72.0,71.1,29.90,East,84,0.0,0.0,97,0.00,CLR,,0.00,WeatherDisplay:10.37,2013-07-22 10:27:00,
2013-07-22 06:32:00,72.0,71.1,29.90,East,84,0.0,0.0,97,0.00,CLR,,0.00,WeatherDisplay:10.37,2013-07-22 10:32:00,
2013-07-22 06:37:00,71.9,71.0,29.90,East,84,0.0,0.0,97,0.00,CLR,,0.00,WeatherDisplay:10.37,2013-07-22 10:37:00,
2013-07-22 06:42:00,71.9,71.0,29.90,East,84,0.0,0.0,97,0.00,CLR,,0.00,WeatherDisplay:10.37,2013-07-22 10:42:00,
2013-07-22 06:47:00,72.0,71.1,29.90,East,84,0.0,0.0,97,0.00,CLR,,0.00,WeatherDisplay:10.37,2013-07-22 10:47:00,
2013-07-22 06:52:00,72.0,71.1,29.90,East,84,0.0,0.0,97,0.00,CLR,,0.00,WeatherDisplay:10.37,2013-07-22 10:52:00,
2013-07-22 06:57:00,72.0,71.1,29.90,East,82,0.0,0.0,97,0.00,CLR,,0.00,WeatherDisplay:10.37,2013-07-22 10:57:00,
2013-07-22 07:02:00,72.2,71.3,29.90,East,82,0.0,0.0,97,0.00,CLR,,0.00,WeatherDisplay:10.37,2013-07-22 11:02:00,
2013-07-22 07:07:00,72.4,71.5,29.90,East,82,0.0,0.0,97,0.00,CLR,,0.00,WeatherDisplay:10.37,2013-07-22 11:07:00,
2013-07-22 07:12:00,72.5,71.6,29.90,SSW,204,1.1,1.1,97,0.00,CLR,,0.00,WeatherDisplay:10.37,2013-07-22 11:12:00,
2013-07-22 07:17:00,72.7,71.8,29.90,SW,235,0.0,0.0,97,0.00,CLR,,0.00,WeatherDisplay:10.37,2013-07-22 11:17:00,
2013-07-22 07:22:00,72.8,71.9,29.90,ESE,122,0.0,0.1,97,0.00,CLR,,0.00,WeatherDisplay:10.37,2013-07-22 11:22:00,
2013-07-22 07:28:00,73.0,72.1,29.90,WSW,238,0.0,0.1,97,0.00,CLR,,0.00,WeatherDisplay:10.37,2013-07-22 11:28:00,
2013-07-22 07:33:00,73.1,72.2,29.90,ESE,121,0.0,0.0,97,0.00,CLR,,0.00,WeatherDisplay:10.37,2013-07-22 11:33:00,
2013-07-22 07:38:00,73.1,72.2,29.90,WSW,239,2.3,2.3,97,0.00,CLR,,0.00,WeatherDisplay:10.37,2013-07-22 11:38:00,
2013-07-22 07:43:00,73.2,72.3,29.90,SW,233,0.0,0.0,97,0.00,CLR,,0.00,WeatherDisplay:10.37,2013-07-22 11:43:00,
2013-07-22 07:48:00,73.3,72.4,29.90,SW,233,0.0,0.0,97,0.00,CLR,,0.00,WeatherDisplay:10.37,2013-07-22 11:48:00,
2013-07-22 07:53:00,73.4,72.5,29.90,SSW,201,3.5,0.0,97,0.00,CLR,,0.00,WeatherDisplay:10.37,2013-07-22 11:53:00,
2013-07-22 07:58:00,73.5,72.6,29.91,SW,228,0.0,0.0,97,0.00,CLR,,0.00,WeatherDisplay:10.37,2013-07-22 11:58:00,
2013-07-22 08:03:00,73.7,72.8,29.91,NE,47,1.1,1.1,97,0.00,CLR,,0.00,WeatherDisplay:10.37,2013-07-22 12:03:00,
2013-07-22 08:08:00,73.9,72.7,29.91,West,271,3.5,3.5,96,0.00,CLR,,0.00,WeatherDisplay:10.37,2013-07-22 12:08:00,
2013-07-22 08:13:00,74.0,72.8,29.91,NW,305,3.5,3.5,96,0.00,CLR,,0.00,WeatherDisplay:10.37,2013-07-22 12:13:00,
2013-07-22 08:18:00,74.3,73.1,29.91,SE,143,0.0,0.0,96,0.00,CLR,,0.00,WeatherDisplay:10.37,2013-07-22 12:18:00,
2013-07-22 08:23:00,74.7,73.5,29.91,East,85,1.1,1.1,96,0.00,CLR,,0.00,WeatherDisplay:10.37,2013-07-22 12:23:00,
2013-07-22 08:28:00,75.1,73.6,29.91,East,80,1.1,1.1,95,0.00,CLR,,0.00,WeatherDisplay:10.37,2013-07-22 12:28:00,
2013-07-22 08:33:00,75.7,73.5,29.92,WNW,290,3.5,3.5,93,0.00,CLR,,0.00,WeatherDisplay:10.37,2013-07-22 12:33:00,
2013-07-22 08:38:00,76.2,73.7,29.92,WSW,250,2.3,2.3,92,0.00,CLR,,0.00,WeatherDisplay:10.37,2013-07-22 12:38:00,
2013-07-22 08:43:00,76.7,73.9,29.91,ENE,77,1.1,1.1,91,0.00,CLR,,0.00,WeatherDisplay:10.37,2013-07-22 12:43:00,
2013-07-22 08:48:00,77.4,73.9,29.92,SW,231,1.1,1.1,89,0.00,CLR,,0.00,WeatherDisplay:10.37,2013-07-22 12:48:00,
2013-07-22 08:53:00,77.5,73.7,29.92,ESE,121,1.1,0.0,88,0.00,CLR,,0.00,WeatherDisplay:10.37,2013-07-22 12:53:00,
2013-07-22 08:58:00,77.4,73.6,29.92,SSE,156,0.0,0.0,88,0.00,CLR,,0.00,WeatherDisplay:10.37,2013-07-22 12:58:00,
2013-07-22 09:03:00,77.6,73.8,29.92,ESE,103,1.1,1.1,88,0.00,CLR,,0.00,WeatherDisplay:10.37,2013-07-22 13:03:00,
2013-07-22 09:08:00,77.7,73.9,29.92,East,92,1.1,1.1,88,0.00,CLR,,0.00,WeatherDisplay:10.37,2013-07-22 13:08:00,
2013-07-22 09:13:00,78.1,73.9,29.92,ESE,104,0.0,0.0,87,0.00,CLR,,0.00,WeatherDisplay:10.37,2013-07-22 13:13:00,
2013-07-22 09:18:00,78.6,74.1,29.92,WNW,284,1.1,1.1,86,0.00,CLR,,0.00,WeatherDisplay:10.37,2013-07-22 13:18:00,
2013-07-22 09:23:00,78.9,74.0,29.92,WSW,238,0.0,0.0,85,0.00,CLR,,0.00,WeatherDisplay:10.37,2013-07-22 13:23:00,
2013-07-22 09:28:00,79.0,73.7,29.92,ESE,104,3.5,3.5,84,0.00,CLR,,0.00,WeatherDisplay:10.37,2013-07-22 13:28:00,
2013-07-22 09:33:00,78.9,73.7,29.92,ENE,78,0.0,0.0,84,0.00,CLR,,0.00,WeatherDisplay:10.37,2013-07-22 13:33:00,
2013-07-22 09:38:00,79.0,74.5,29.92,ENE,61,0.0,0.0,86,0.00,CLR,,0.00,WeatherDisplay:10.37,2013-07-22 13:38:00,
2013-07-22 09:43:00,79.3,74.4,29.92,East,101,0.0,0.0,85,0.00,CLR,,0.00,WeatherDisplay:10.37,2013-07-22 13:43:00,
2013-07-22 09:48:00,79.8,74.5,29.92,West,277,1.1,1.1,84,0.00,CLR,,0.00,WeatherDisplay:10.37,2013-07-22 13:48:00,
2013-07-22 09:53:00,80.0,74.7,29.91,SW,217,0.0,0.0,84,0.00,CLR,,0.00,WeatherDisplay:10.37,2013-07-22 13:53:00,
2013-07-22 09:55:00,80.2,74.6,29.91,WSW,243,1.1,1.1,83,0.00,CLR,,0.00,WeatherDisplay:10.37,2013-07-22 13:55:00,
2013-07-22 10:00:00,80.3,74.7,29.91,SW,233,2.3,2.3,83,0.00,CLR,,0.00,WeatherDisplay:10.37,2013-07-22 14:00:00,
2013-07-22 10:05:00,80.4,75.1,29.91,WSW,255,0.0,0.0,84,0.00,CLR,,0.00,WeatherDisplay:10.37,2013-07-22 14:05:00,
2013-07-22 10:10:00,80.4,74.4,29.91,WSW,252,1.1,1.1,82,0.00,CLR,,0.00,WeatherDisplay:10.37,2013-07-22 14:10:00,
2013-07-22 10:15:00,80.2,74.6,29.91,East,98,0.0,0.0,83,0.00,CLR,,0.00,WeatherDisplay:10.37,2013-07-22 14:15:00,
2013-07-22 10:20:00,80.3,74.7,29.91,NNE,20,0.0,0.0,83,0.00,CLR,,0.00,WeatherDisplay:10.37,2013-07-22 14:20:00,
2013-07-22 10:25:00,80.8,75.2,29.91,SW,232,1.1,0.0,83,0.00,CLR,,0.00,WeatherDisplay:10.37,2013-07-22 14:25:00,
2013-07-22 10:30:00,81.2,74.8,29.91,WSW,246,2.3,2.3,81,0.00,CLR,,0.00,WeatherDisplay:10.37,2013-07-22 14:30:00,
2013-07-22 10:35:00,81.1,74.7,29.91,WNW,290,0.0,0.0,81,0.00,CLR,,0.00,WeatherDisplay:10.37,2013-07-22 14:35:00,
2013-07-22 10:40:00,81.4,74.6,29.91,WNW,282,1.1,1.1,80,0.00,CLR,,0.00,WeatherDisplay:10.37,2013-07-22 14:40:00,
2013-07-22 10:45:00,81.7,74.9,29.91,SE,144,3.5,3.5,80,0.00,CLR,,0.00,WeatherDisplay:10.37,2013-07-22 14:45:00,
2013-07-22 10:50:00,82.5,75.3,29.91,WSW,239,0.0,0.0,79,0.00,CLR,,0.00,WeatherDisplay:10.37,2013-07-22 14:50:00,
2013-07-22 10:55:00,82.6,74.7,29.91,SSW,211,2.0,2.0,77,0.00,CLR,,0.00,WeatherDisplay:10.37,2013-07-22 14:55:00,
2013-07-22 11:00:00,82.4,75.2,29.90,WNW,297,2.3,2.3,79,0.00,CLR,,0.00,WeatherDisplay:10.37,2013-07-22 15:00:00,
2013-07-22 11:05:00,82.1,74.2,29.90,North,352,1.0,1.0,77,0.00,CLR,,0.00,WeatherDisplay:10.37,2013-07-22 15:05:00,
2013-07-22 11:10:00,82.3,74.7,29.90,ESE,119,0.0,0.0,78,0.00,CLR,,0.00,WeatherDisplay:10.37,2013-07-22 15:10:00,
2013-07-22 11:15:00,82.5,75.3,29.90,West,274,2.3,2.3,79,0.00,CLR,,0.00,WeatherDisplay:10.37,2013-07-22 15:15:00,
2013-07-22 11:20:00,82.7,75.1,29.90,East,88,3.5,3.5,78,0.00,CLR,,0.00,WeatherDisplay:10.37,2013-07-22 15:20:00,
2013-07-22 11:25:00,82.3,75.1,29.90,WSW,239,3.5,3.5,79,0.00,CLR,,0.00,WeatherDisplay:10.37,2013-07-22 15:25:00,
2013-07-22 11:30:00,82.3,74.7,29.90,SSW,208,3.5,3.5,78,0.00,CLR,,0.00,WeatherDisplay:10.37,2013-07-22 15:30:00,
2013-07-22 11:35:00,82.3,75.1,29.90,SSE,150,3.5,3.5,79,0.00,CLR,,0.00,WeatherDisplay:10.37,2013-07-22 15:35:00,
2013-07-22 11:40:00,82.9,74.6,29.90,ENE,70,1.1,1.1,76,0.00,CLR,,0.00,WeatherDisplay:10.37,2013-07-22 15:40:00,
2013-07-22 11:45:00,83.8,74.6,29.90,SE,127,6.9,6.9,74,0.00,CLR,,0.00,WeatherDisplay:10.37,2013-07-22 15:45:00,
2013-07-22 11:50:00,84.3,74.7,29.90,East,96,3.5,3.5,73,0.00,CLR,,0.00,WeatherDisplay:10.37,2013-07-22 15:50:00,
2013-07-22 11:55:00,84.8,75.6,29.90,East,84,2.3,2.3,74,0.00,CLR,,0.00,WeatherDisplay:10.37,2013-07-22 15:55:00,
2013-07-22 12:00:00,85.0,75.8,29.90,SW,225,3.5,3.5,74,0.00,CLR,,0.00,WeatherDisplay:10.37,2013-07-22 16:00:00,
2013-07-22 12:05:00,84.4,75.6,29.90,WSW,238,0.0,0.0,75,0.00,CLR,,0.00,WeatherDisplay:10.37,2013-07-22 16:05:00,
2013-07-22 12:10:00,84.9,76.1,29.91,East,100,3.5,3.5,75,0.00,CLR,,0.00,WeatherDisplay:10.37,2013-07-22 16:10:00,
2013-07-22 12:15:00,85.1,76.7,29.90,NE,51,8.1,8.1,76,0.00,CLR,,0.00,WeatherDisplay:10.37,2013-07-22 16:15:00,
2013-07-22 12:20:00,84.7,75.9,29.90,East,79,5.8,5.8,75,0.00,CLR,,0.00,WeatherDisplay:10.37,2013-07-22 16:20:00,
2013-07-22 12:25:00,85.1,75.5,29.90,SE,139,6.9,6.9,73,0.00,CLR,,0.00,WeatherDisplay:10.37,2013-07-22 16:25:00,
2013-07-22 12:30:00,85.6,76.4,29.90,South,188,2.3,2.3,74,0.00,CLR,,0.00,WeatherDisplay:10.37,2013-07-22 16:30:00,
2013-07-22 12:35:00,84.9,75.7,29.90,East,89,2.3,2.3,74,0.00,CLR,,0.00,WeatherDisplay:10.37,2013-07-22 16:35:00,
2013-07-22 12:40:00,84.6,75.8,29.90,West,281,3.5,3.5,75,0.00,CLR,,0.00,WeatherDisplay:10.37,2013-07-22 16:40:00,
2013-07-22 12:45:00,84.7,75.9,29.90,SSW,207,4.6,4.6,75,0.00,CLR,,0.00,WeatherDisplay:10.37,2013-07-22 16:45:00,
2013-07-22 12:50:00,85.1,75.9,29.89,ENE,74,5.8,5.8,74,0.00,CLR,,0.00,WeatherDisplay:10.37,2013-07-22 16:50:00,
2013-07-22 12:55:00,84.4,75.2,29.90,SSE,151,3.5,3.5,74,0.00,CLR,,0.00,WeatherDisplay:10.37,2013-07-22 16:55:00,
2013-07-22 13:00:00,84.2,75.0,29.90,NE,34,2.3,2.3,74,0.00,CLR,,0.00,WeatherDisplay:10.37,2013-07-22 17:00:00,
2013-07-22 13:05:00,84.7,75.5,29.89,SW,215,3.5,3.5,74,0.00,CLR,,0.00,WeatherDisplay:10.37,2013-07-22 17:05:00,
2013-07-22 13:10:00,85.2,75.6,29.89,ESE,120,5.8,5.8,73,0.00,CLR,,0.00,WeatherDisplay:10.37,2013-07-22 17:10:00,
2013-07-22 13:15:00,85.3,76.5,29.89,ENE,77,3.0,3.0,75,0.00,CLR,,0.00,WeatherDisplay:10.37,2013-07-22 17:15:00,
2013-07-22 13:20:00,85.4,75.8,29.89,South,174,3.5,3.5,73,0.00,CLR,,0.00,WeatherDisplay:10.37,2013-07-22 17:20:00,
2013-07-22 13:25:00,85.3,75.7,29.89,ESE,109,6.9,6.9,73,0.00,CLR,,0.00,WeatherDisplay:10.37,2013-07-22 17:25:00,
2013-07-22 13:30:00,85.1,75.5,29.89,WSW,238,3.5,3.5,73,0.00,CLR,,0.00,WeatherDisplay:10.37,2013-07-22 17:30:00,
2013-07-22 13:35:00,85.5,76.3,29.88,East,86,4.6,4.6,74,0.00,CLR,,0.00,WeatherDisplay:10.37,2013-07-22 17:35:00,
2013-07-22 13:40:00,85.2,75.6,29.88,WSW,245,5.8,5.8,73,0.00,CLR,,0.00,WeatherDisplay:10.37,2013-07-22 17:40:00,
2013-07-22 13:45:00,85.0,75.8,29.88,East,99,3.5,3.5,74,0.00,CLR,,0.00,WeatherDisplay:10.37,2013-07-22 17:45:00,
2013-07-22 13:50:00,85.2,75.6,29.88,SSW,210,6.9,6.9,73,0.00,CLR,,0.00,WeatherDisplay:10.37,2013-07-22 17:50:00,
2013-07-22 13:55:00,85.3,75.7,29.88,WSW,249,3.5,3.5,73,0.00,CLR,,0.00,WeatherDisplay:10.37,2013-07-22 17:55:00,
2013-07-22 14:00:00,85.4,75.3,29.88,North,9,2.3,2.3,72,0.00,CLR,,0.00,WeatherDisplay:10.37,2013-07-22 18:00:00,
2013-07-22 14:05:00,85.7,75.6,29.87,WSW,249,3.5,3.5,72,0.00,CLR,,0.00,WeatherDisplay:10.37,2013-07-22 18:05:00,
2013-07-22 14:10:00,85.7,75.6,29.87,SSE,150,4.6,4.6,72,0.00,CLR,,0.00,WeatherDisplay:10.37,2013-07-22 18:10:00,
2013-07-22 14:15:00,85.7,75.2,29.87,SSE,165,5.8,5.8,71,0.00,CLR,,0.00,WeatherDisplay:10.37,2013-07-22 18:15:00,
2013-07-22 14:20:00,86.0,75.5,29.87,West,263,3.5,3.5,71,0.00,CLR,,0.00,WeatherDisplay:10.37,2013-07-22 18:20:00,
2013-07-22 14:25:00,85.9,75.8,29.87,SE,126,3.5,3.5,72,0.00,CLR,,0.00,WeatherDisplay:10.37,2013-07-22 18:25:00,
2013-07-22 14:30:00,85.6,75.1,29.86,South,177,5.8,5.8,71,0.00,CLR,,0.00,WeatherDisplay:10.37,2013-07-22 18:30:00,
2013-07-22 14:35:00,85.8,75.3,29.86,WNW,283,3.5,3.5,71,0.00,CLR,,0.00,WeatherDisplay:10.37,2013-07-22 18:35:00,
2013-07-22 14:40:00,86.0,75.5,29.86,SSW,193,3.0,3.0,71,0.00,CLR,,0.00,WeatherDisplay:10.37,2013-07-22 18:40:00,
2013-07-22 14:45:00,86.3,75.4,29.86,ESE,117,3.5,3.5,70,0.00,CLR,,0.00,WeatherDisplay:10.37,2013-07-22 18:45:00,
2013-07-22 14:46:00,86.3,75.4,29.86,SW,222,3.5,3.5,70,0.00,CLR,,0.00,WeatherDisplay:10.37,2013-07-22 18:46:00,
2013-07-22 14:51:00,86.2,75.3,29.86,WNW,288,3.5,3.5,70,0.00,CLR,,0.00,WeatherDisplay:10.37,2013-07-22 18:51:00,
2013-07-22 14:56:00,87.0,76.5,29.86,NW,315,3.5,3.5,71,0.00,CLR,,0.00,WeatherDisplay:10.37,2013-07-22 18:56:00,
2013-07-22 15:01:00,87.5,76.1,29.85,NE,53,4.6,4.6,69,0.00,CLR,,0.00,WeatherDisplay:10.37,2013-07-22 19:01:00,
2013-07-22 15:06:00,87.0,74.7,29.85,ESE,113,4.6,4.6,67,0.00,CLR,,0.00,WeatherDisplay:10.37,2013-07-22 19:06:00,
2013-07-22 15:11:00,86.8,75.4,29.85,NNW,346,3.0,3.0,69,0.00,CLR,,0.00,WeatherDisplay:10.37,2013-07-22 19:11:00,
2013-07-22 15:16:00,86.7,75.3,29.85,SSE,150,3.5,3.5,69,0.00,CLR,,0.00,WeatherDisplay:10.37,2013-07-22 19:16:00,
2013-07-22 15:21:00,86.6,74.8,29.84,East,98,3.5,3.5,68,0.00,CLR,,0.00,WeatherDisplay:10.37,2013-07-22 19:21:00,
2013-07-22 15:26:00,86.7,74.9,29.84,NNW,345,3.5,3.5,68,0.00,CLR,,0.00,WeatherDisplay:10.37,2013-07-22 19:26:00,
2013-07-22 15:31:00,87.1,75.7,29.84,SW,226,1.1,2.0,69,0.00,CLR,,0.00,WeatherDisplay:10.37,2013-07-22 19:31:00,
2013-07-22 15:36:00,87.8,75.0,29.84,North,350,8.1,8.1,66,0.00,CLR,,0.00,WeatherDisplay:10.37,2013-07-22 19:36:00,
2013-07-22 15:41:00,88.1,75.8,29.84,East,82,6.0,6.0,67,0.00,CLR,,0.00,WeatherDisplay:10.37,2013-07-22 19:41:00,
2013-07-22 15:46:00,87.9,75.6,29.83,East,91,5.8,5.8,67,0.00,CLR,,0.00,WeatherDisplay:10.37,2013-07-22 19:46:00,
2013-07-22 15:51:00,88.5,75.7,29.83,WNW,283,2.0,2.0,66,0.00,CLR,,0.00,WeatherDisplay:10.37,2013-07-22 19:51:00,
2013-07-22 15:56:00,88.2,75.4,29.83,SSW,195,3.5,3.5,66,0.00,CLR,,0.00,WeatherDisplay:10.37,2013-07-22 19:56:00,
2013-07-22 16:01:00,88.0,75.2,29.83,NW,315,5.8,5.8,66,0.00,CLR,,0.00,WeatherDisplay:10.37,2013-07-22 20:01:00,
2013-07-22 16:06:00,87.5,75.6,29.83,WSW,243,1.1,1.1,68,0.00,CLR,,0.00,WeatherDisplay:10.37,2013-07-22 20:06:00,
2013-07-22 16:11:00,87.3,75.4,29.83,SE,128,4.6,4.6,68,0.00,CLR,,0.00,WeatherDisplay:10.37,2013-07-22 20:11:00,
2013-07-22 16:16:00,87.0,74.7,29.82,WNW,285,1.1,1.1,67,0.00,CLR,,0.00,WeatherDisplay:10.37,2013-07-22 20:16:00,
2013-07-22 16:17:00,87.0,74.7,29.82,SW,235,1.1,1.1,67,0.00,CLR,,0.00,WeatherDisplay:10.37,2013-07-22 20:17:00,
2013-07-22 16:22:00,87.4,74.6,29.82,West,274,3.5,3.5,66,0.00,CLR,,0.00,WeatherDisplay:10.37,2013-07-22 20:22:00,
2013-07-22 16:27:00,87.7,74.9,29.82,East,89,3.5,3.5,66,0.00,CLR,,0.00,WeatherDisplay:10.37,2013-07-22 20:27:00,
2013-07-22 16:32:00,88.1,74.8,29.82,South,185,4.6,4.6,65,0.00,CLR,,0.00,WeatherDisplay:10.37,2013-07-22 20:32:00,
2013-07-22 16:37:00,87.9,74.7,29.82,WNW,295,3.5,3.5,65,0.00,CLR,,0.00,WeatherDisplay:10.37,2013-07-22 20:37:00,
2013-07-22 16:42:00,87.9,75.1,29.82,East,89,3.5,3.5,66,0.00,CLR,,0.00,WeatherDisplay:10.37,2013-07-22 20:42:00,
2013-07-22 16:47:00,88.3,75.5,29.82,ENE,61,1.1,1.1,66,0.00,CLR,,0.00,WeatherDisplay:10.37,2013-07-22 20:47:00,
2013-07-22 16:52:00,87.9,75.1,29.82,WSW,249,3.5,3.5,66,0.00,CLR,,0.00,WeatherDisplay:10.37,2013-07-22 20:52:00,
2013-07-22 16:57:00,87.7,75.4,29.82,ESE,103,3.5,3.5,67,0.00,CLR,,0.00,WeatherDisplay:10.37,2013-07-22 20:57:00,
2013-07-22 17:02:00,88.1,75.8,29.81,SW,224,0.0,0.0,67,0.00,CLR,,0.00,WeatherDisplay:10.37,2013-07-22 21:02:00,
2013-07-22 17:07:00,88.6,74.9,29.81,ENE,74,2.3,2.3,64,0.00,CLR,,0.00,WeatherDisplay:10.37,2013-07-22 21:07:00,
2013-07-22 17:12:00,88.8,74.6,29.81,NNW,347,2.0,2.0,63,0.00,CLR,,0.00,WeatherDisplay:10.37,2013-07-22 21:12:00,
2013-07-22 17:17:00,88.8,75.0,29.80,SSE,156,2.3,2.3,64,0.00,CLR,,0.00,WeatherDisplay:10.37,2013-07-22 21:17:00,
2013-07-22 17:22:00,89.0,75.2,29.80,South,169,2.3,2.3,64,0.00,CLR,,0.00,WeatherDisplay:10.37,2013-07-22 21:22:00,
2013-07-22 17:27:00,88.8,74.6,29.81,NNW,333,5.8,5.8,63,0.00,CLR,,0.00,WeatherDisplay:10.37,2013-07-22 21:27:00,
2013-07-22 17:32:00,88.4,73.7,29.81,NNE,14,4.0,4.0,62,0.00,CLR,,0.00,WeatherDisplay:10.37,2013-07-22 21:32:00,
2013-07-22 17:37:00,88.2,74.0,29.80,SE,128,2.3,2.3,63,0.00,CLR,,0.00,WeatherDisplay:10.37,2013-07-22 21:37:00,
2013-07-22 17:42:00,88.5,73.3,29.80,NNE,12,3.5,3.5,61,0.00,CLR,,0.00,WeatherDisplay:10.37,2013-07-22 21:42:00,
2013-07-22 17:47:00,88.6,73.4,29.80,NE,39,2.3,2.3,61,0.00,CLR,,0.00,WeatherDisplay:10.37,2013-07-22 21:47:00,
2013-07-22 17:52:00,88.7,73.5,29.80,WSW,255,2.3,2.3,61,0.00,CLR,,0.00,WeatherDisplay:10.37,2013-07-22 21:52:00,
2013-07-22 17:57:00,88.6,73.9,29.80,East,99,2.3,2.3,62,0.00,CLR,,0.00,WeatherDisplay:10.37,2013-07-22 21:57:00,
2013-07-22 18:02:00,88.6,73.9,29.80,East,85,5.8,5.8,62,0.00,CLR,,0.00,WeatherDisplay:10.37,2013-07-22 22:02:00,
2013-07-22 18:07:00,88.6,74.4,29.79,SSW,201,2.3,2.3,63,0.00,CLR,,0.00,WeatherDisplay:10.37,2013-07-22 22:07:00,
2013-07-22 18:12:00,88.6,74.4,29.79,WNW,287,2.3,2.3,63,0.00,CLR,,0.00,WeatherDisplay:10.37,2013-07-22 22:12:00,
2013-07-22 18:17:00,88.7,74.5,29.79,East,86,2.3,2.3,63,0.00,CLR,,0.00,WeatherDisplay:10.37,2013-07-22 22:17:00,
2013-07-22 18:22:00,88.7,74.5,29.79,WNW,301,3.5,3.5,63,0.00,CLR,,0.00,WeatherDisplay:10.37,2013-07-22 22:22:00,
2013-07-22 18:27:00,88.3,74.6,29.79,WNW,297,2.3,2.3,64,0.00,CLR,,0.00,WeatherDisplay:10.37,2013-07-22 22:27:00,
2013-07-22 18:32:00,87.8,74.1,29.79,NW,316,3.5,3.5,64,0.00,CLR,,0.00,WeatherDisplay:10.37,2013-07-22 22:32:00,
2013-07-22 18:37:00,87.5,74.3,29.79,East,100,3.5,3.5,65,0.00,CLR,,0.00,WeatherDisplay:10.37,2013-07-22 22:37:00,
2013-07-22 18:42:00,87.1,74.4,29.79,WSW,242,2.3,2.3,66,0.00,CLR,,0.00,WeatherDisplay:10.37,2013-07-22 22:42:00,
2013-07-22 18:47:00,86.4,74.1,29.80,WNW,285,2.0,2.0,67,0.00,CLR,,0.00,WeatherDisplay:10.37,2013-07-22 22:47:00,
2013-07-22 18:52:00,85.9,74.1,29.80,NE,40,3.5,3.5,68,0.00,CLR,,0.00,WeatherDisplay:10.37,2013-07-22 22:52:00,
2013-07-22 18:57:00,85.6,73.8,29.80,SW,222,3.5,3.5,68,0.00,CLR,,0.00,WeatherDisplay:10.37,2013-07-22 22:57:00,
2013-07-22 19:02:00,85.4,74.1,29.79,ENE,74,4.0,4.0,69,0.00,CLR,,0.00,WeatherDisplay:10.37,2013-07-22 23:02:00,
2013-07-22 19:07:00,85.4,74.1,29.79,SW,233,2.3,2.3,69,0.00,CLR,,0.00,WeatherDisplay:10.37,2013-07-22 23:07:00,
2013-07-22 19:12:00,85.4,74.1,29.79,ENE,70,1.1,1.1,69,0.00,CLR,,0.00,WeatherDisplay:10.37,2013-07-22 23:12:00,
2013-07-22 19:17:00,85.3,74.4,29.79,West,265,3.5,3.5,70,0.00,CLR,,0.00,WeatherDisplay:10.37,2013-07-22 23:17:00,
2013-07-22 19:22:00,85.0,74.5,29.79,North,11,3.5,3.5,71,0.00,CLR,,0.00,WeatherDisplay:10.37,2013-07-22 23:22:00,
2013-07-22 19:27:00,84.8,74.3,29.80,NW,304,5.8,5.8,71,0.00,CLR,,0.00,WeatherDisplay:10.37,2013-07-22 23:27:00,
2013-07-22 19:32:00,84.6,74.6,29.80,ENE,65,3.5,3.5,72,0.00,CLR,,0.00,WeatherDisplay:10.37,2013-07-22 23:32:00,
2013-07-22 19:33:00,84.5,74.5,29.80,SW,233,2.3,2.3,72,0.00,CLR,,0.00,WeatherDisplay:10.37,2013-07-22 23:33:00,
2013-07-22 19:34:00,84.5,74.5,29.80,SSE,168,2.3,2.3,72,0.00,CLR,,0.00,WeatherDisplay:10.37,2013-07-22 23:34:00,
2013-07-22 19:39:00,84.3,74.3,29.80,WNW,291,3.5,3.5,72,0.00,CLR,,0.00,WeatherDisplay:10.37,2013-07-22 23:39:00,
2013-07-22 19:44:00,84.0,74.4,29.80,ESE,117,2.3,2.3,73,0.00,CLR,,0.00,WeatherDisplay:10.37,2013-07-22 23:44:00,
2013-07-22 19:49:00,83.7,74.1,29.80,NNE,31,1.1,1.1,73,0.00,CLR,,0.00,WeatherDisplay:10.37,2013-07-22 23:49:00,
2013-07-22 19:54:00,83.6,74.4,29.80,ESE,109,1.1,0.0,74,0.00,CLR,,0.00,WeatherDisplay:10.37,2013-07-22 23:54:00,
2013-07-22 19:59:00,83.4,74.2,29.80,ESE,113,3.5,3.5,74,0.00,CLR,,0.00,WeatherDisplay:10.37,2013-07-22 23:59:00,
2013-07-22 20:04:00,83.3,74.1,29.80,NNW,330,1.1,1.1,74,0.00,CLR,,0.00,WeatherDisplay:10.37,2013-07-23 00:04:00,
2013-07-22 20:09:00,83.1,74.4,29.80,East,81,2.3,0.0,75,0.00,CLR,,0.00,WeatherDisplay:10.37,2013-07-23 00:09:00,
2013-07-22 20:14:00,82.9,74.2,29.80,West,262,3.5,3.5,75,0.00,CLR,,0.00,WeatherDisplay:10.37,2013-07-23 00:14:00,
2013-07-22 20:19:00,82.7,74.4,29.80,WSW,253,1.1,0.0,76,0.00,CLR,,0.00,WeatherDisplay:10.37,2013-07-23 00:19:00,
2013-07-22 20:24:00,82.4,74.1,29.79,NNE,27,0.0,0.0,76,0.00,CLR,,0.00,WeatherDisplay:10.37,2013-07-23 00:24:00,
2013-07-22 20:29:00,82.2,74.3,29.80,SW,226,0.0,0.3,77,0.00,CLR,,0.00,WeatherDisplay:10.37,2013-07-23 00:29:00,
2013-07-22 20:34:00,81.9,74.0,29.79,South,183,0.0,0.0,77,0.00,CLR,,0.00,WeatherDisplay:10.37,2013-07-23 00:34:00,
2013-07-22 20:39:00,81.7,73.8,29.79,ESE,110,0.0,0.0,77,0.00,CLR,,0.00,WeatherDisplay:10.37,2013-07-23 00:39:00,
2013-07-22 20:44:00,81.6,74.1,29.79,SE,140,0.0,0.0,78,0.00,CLR,,0.00,WeatherDisplay:10.37,2013-07-23 00:44:00,
2013-07-22 20:49:00,81.4,73.9,29.80,ESE,111,0.0,0.0,78,0.00,CLR,,0.00,WeatherDisplay:10.37,2013-07-23 00:49:00,
2013-07-22 20:54:00,81.3,74.2,29.79,ENE,77,0.0,0.0,79,0.00,CLR,,0.00,WeatherDisplay:10.37,2013-07-23 00:54:00,
2013-07-22 20:59:00,81.1,74.0,29.79,East,97,0.0,0.0,79,0.00,CLR,,0.00,WeatherDisplay:10.37,2013-07-23 00:59:00,
2013-07-22 21:04:00,80.8,74.0,29.79,SE,140,1.1,0.0,80,0.00,CLR,,0.00,WeatherDisplay:10.37,2013-07-23 01:04:00,
2013-07-22 21:09:00,80.6,73.9,29.80,ENE,78,0.0,0.0,80,0.00,CLR,,0.00,WeatherDisplay:10.37,2013-07-23 01:09:00,
2013-07-22 21:14:00,80.4,74.0,29.80,ENE,68,0.0,0.0,81,0.00,CLR,,0.00,WeatherDisplay:10.37,2013-07-23 01:14:00,
2013-07-22 21:19:00,80.2,73.8,29.79,ENE,68,0.0,0.0,81,0.00,CLR,,0.00,WeatherDisplay:10.37,2013-07-23 01:19:00,
2013-07-22 21:24:00,80.1,74.1,29.80,East,87,0.0,0.0,82,0.00,CLR,,0.00,WeatherDisplay:10.37,2013-07-23 01:24:00,
2013-07-22 21:29:00,79.9,73.9,29.80,ESE,111,0.0,0.0,82,0.00,CLR,,0.00,WeatherDisplay:10.37,2013-07-23 01:29:00,
2013-07-22 21:34:00,79.7,74.1,29.80,ESE,104,0.0,0.0,83,0.00,CLR,,0.00,WeatherDisplay:10.37,2013-07-23 01:34:00,
2013-07-22 21:39:00,79.6,74.0,29.81,East,95,1.0,0.0,83,0.00,CLR,,0.00,WeatherDisplay:10.37,2013-07-23 01:39:00,
2013-07-22 21:44:00,79.5,73.9,29.81,WNW,283,1.1,0.0,83,0.00,CLR,,0.00,WeatherDisplay:10.37,2013-07-23 01:44:00,
2013-07-22 21:49:00,79.5,73.9,29.81,WNW,283,0.0,0.0,83,0.00,CLR,,0.00,WeatherDisplay:10.37,2013-07-23 01:49:00,
2013-07-22 21:54:00,79.4,73.8,29.81,East,100,0.0,0.2,83,0.00,CLR,,0.00,WeatherDisplay:10.37,2013-07-23 01:54:00,
2013-07-22 21:59:00,79.4,73.8,29.81,ESE,105,0.0,0.0,83,0.00,CLR,,0.00,WeatherDisplay:10.37,2013-07-23 01:59:00,
2013-07-22 22:04:00,79.3,73.7,29.81,SSW,203,0.0,0.0,83,0.00,CLR,,0.00,WeatherDisplay:10.37,2013-07-23 02:04:00,
2013-07-22 22:09:00,79.2,73.6,29.82,SE,143,0.0,0.0,83,0.00,CLR,,0.00,WeatherDisplay:10.37,2013-07-23 02:09:00,
2013-07-22 22:14:00,79.1,73.5,29.81,SE,146,0.0,0.0,83,0.00,CLR,,0.00,WeatherDisplay:10.37,2013-07-23 02:14:00,
2013-07-22 22:19:00,79.0,73.7,29.81,SE,146,0.0,0.0,84,0.00,CLR,,0.00,WeatherDisplay:10.37,2013-07-23 02:19:00,
2013-07-22 22:24:00,78.8,73.6,29.81,SE,145,0.0,0.0,84,0.00,CLR,,0.00,WeatherDisplay:10.37,2013-07-23 02:24:00,
2013-07-22 22:29:00,78.7,73.5,29.82,SE,146,0.0,0.0,84,0.00,CLR,,0.00,WeatherDisplay:10.37,2013-07-23 02:29:00,
2013-07-22 22:34:00,78.6,73.7,29.82,SE,146,0.0,0.0,85,0.00,CLR,,0.00,WeatherDisplay:10.37,2013-07-23 02:34:00,
2013-07-22 22:39:00,78.5,73.6,29.82,SE,145,0.0,0.0,85,0.00,CLR,,0.00,WeatherDisplay:10.37,2013-07-23 02:39:00,
2013-07-22 22:44:00,78.5,73.6,29.82,South,172,0.0,0.0,85,0.00,CLR,,0.00,WeatherDisplay:10.37,2013-07-23 02:44:00,
2013-07-22 22:49:00,78.5,73.6,29.82,SSW,206,0.0,0.0,85,0.00,CLR,,0.00,WeatherDisplay:10.37,2013-07-23 02:49:00,
2013-07-22 22:54:00,78.5,73.6,29.82,SSE,148,0.0,0.3,85,0.00,CLR,,0.00,WeatherDisplay:10.37,2013-07-23 02:54:00,
2013-07-22 22:59:00,78.6,73.7,29.82,SSW,204,1.1,0.0,85,0.00,CLR,,0.00,WeatherDisplay:10.37,2013-07-23 02:59:00,
2013-07-22 23:04:00,78.8,73.6,29.82,NW,323,1.1,1.1,84,0.00,CLR,,0.00,WeatherDisplay:10.37,2013-07-23 03:04:00,
2013-07-22 23:09:00,78.9,73.7,29.82,East,88,0.0,0.0,84,0.00,CLR,,0.00,WeatherDisplay:10.37,2013-07-23 03:09:00,
2013-07-22 23:14:00,79.0,73.4,29.82,East,89,0.0,0.0,83,0.00,CLR,,0.00,WeatherDisplay:10.37,2013-07-23 03:14:00,
2013-07-22 23:19:00,79.0,73.4,29.82,East,81,1.1,1.1,83,0.00,CLR,,0.00,WeatherDisplay:10.37,2013-07-23 03:19:00,
2013-07-22 23:24:00,79.1,73.5,29.82,East,84,0.0,0.3,83,0.00,CLR,,0.00,WeatherDisplay:10.37,2013-07-23 03:24:00,
2013-07-22 23:29:00,79.2,73.6,29.82,SE,127,1.1,0.0,83,0.00,CLR,,0.00,WeatherDisplay:10.37,2013-07-23 03:29:00,
2013-07-22 23:34:00,79.2,73.6,29.82,SE,146,1.1,0.0,83,0.00,CLR,,0.00,WeatherDisplay:10.37,2013-07-23 03:34:00,
2013-07-22 23:39:00,79.2,73.6,29.82,SSW,193,1.1,1.1,83,0.00,CLR,,0.00,WeatherDisplay:10.37,2013-07-23 03:39:00,
2013-07-22 23:44:00,79.2,73.6,29.82,NW,306,0.0,0.0,83,0.00,CLR,,0.00,WeatherDisplay:10.37,2013-07-23 03:44:00,
2013-07-22 23:50:00,79.2,73.6,29.82,WSW,238,1.1,1.1,83,0.00,CLR,,0.00,WeatherDisplay:10.37,2013-07-23 03:50:00,
2013-07-22 23:55:00,79.1,73.5,29.82,ENE,70,0.0,0.0,83,0.00,CLR,,0.00,WeatherDisplay:10.37,2013-07-23 03:55:00,